Wind_Speed
10 9 9 12 16 20 25 29 29 27 25 22 21 19 18 17 15 10 7 5 4 1 1 2 3 4 6 7 7 9 10 12 10 9 7 8 10 10 12 13 13 13 12 10 10
10 11 11 15 17 20 25 28 27 25 23 20 19 17 15 13 9 9 7 4 3 2 2 2 3 4 4 4 8 11 10 9 8 6 6 8 9 11 13 13 12 10 10 10 11
10 11 14 15 17 19 22 25 25 23 21 18 15 14 13 10 7 6 7 6 5 5 4 4 6 5 4 3 7 11 12 11 12 9 8 9 10 12 13 12 10 10 10 11 12
11 11 14 15 16 17 18 21 22 21 18 16 14 12 11 8 4 4 7 7 4 4 5 6 7 6 5 3 5 8 8 11 10 9 9 10 10 12 13 11 10 10 10 11 12
11 11 12 13 14 15 16 16 18 18 17 16 14 13 12 10 7 5 6 5 5 5 5 6 6 6 4 4 4 6 6 8 8 8 8 9 9 13 10 12 9 9 10 11 12
10 10 11 11 12 12 12 13 13 14 14 14 13 12 10 8 6 4 5 5 6 6 5 5 3 4 6 5 5 6 6 7 7 6 7 9 11 13 9 10 10 11 12 12 12
9 9 9 10 9 10 10 10 10 11 12 12 12 11 10 9 7 6 5 5 5 6 4 4 4 5 6 6 5 5 4 4 6 5 8 10 12 8 9 12 14 13 12 11 9
9 8 8 8 9 9 8 8 8 9 10 11 12 10 11 9 8 8 6 4 4 4 4 4 4 5 6 5 4 4 5 5 7 8 9 11 13 12 14 14 11 9 8 7 6
8 8 8 8 8 7 7 8 9 9 8 9 10 9 9 9 8 7 5 4 4 5 5 5 5 5 5 4 6 7 7 9 9 9 13 14 16 14 14 12 8 6 5 4 4
8 8 8 8 7 8 8 8 7 8 8 8 9 8 10 8 7 7 6 6 6 7 7 5 4 6 6 5 6 8 11 12 14 14 16 20 16 13 10 7 6 6 6 5 5
7 7 7 7 7 7 6 5 6 7 9 9 7 9 11 8 7 7 7 7 8 8 7 8 8 8 8 10 11 11 13 14 14 16 20 19 16 10 10 9 7 7 6 5 5
6 7 7 7 7 7 6 6 6 6 7 8 9 10 9 8 6 7 8 8 8 9 10 11 11 9 11 12 13 13 14 14 15 15 20 16 13 12 12 9 8 8 7 6 6
4 5 6 8 8 7 6 5 3 5 6 8 8 7 7 7 7 8 9 9 10 11 12 13 11 12 12 13 14 15 15 14 16 19 22 19 19 16 13 11 9 7 7 6 6
3 4 6 5 5 6 6 4 5 5 5 5 6 5 7 8 10 10 10 10 10 10 11 12 12 13 12 14 14 16 14 12 15 18 7 7 9 16 18 13 10 8 6 6 9
4 5 5 5 6 7 6 4 4 5 3 3 3 3 5 7 8 8 8 9 9 10 12 12 13 13 15 16 14 14 13 15 17 12 16 18 10 14 19 19 12 8 7 8 10
6 6 5 5 7 6 6 6 4 4 5 2 3 3 5 6 7 9 10 11 13 15 16 17 18 18 16 14 15 15 14 16 16 12 7 16 17 18 19 11 10 9 9 12 14
7 7 7 7 6 7 7 7 4 5 2 2 2 6 9 9 9 8 10 12 11 9 11 14 14 16 16 17 18 16 12 5 3 3 8 5 12 27 18 14 11 10 9 13 15
8 9 9 9 9 8 8 8 7 3 5 6 8 9 9 5 6 6 10 12 11 13 14 9 8 8 10 13 12 10 13 6 5 3 5 6 12 12 9 12 16 15 13 14 17
10 10 10 10 10 11 10 11 4 5 7 6 8 11 5 4 7 11 10 14 9 6 7 5 7 8 9 11 11 10 14 14 8 13 6 11 20 29 22 20 15 15 16 17 19
11 11 12 12 12 13 15 16 11 11 13 12 12 8 8 8 11 10 11 9 9 6 7 11 15 15 17 18 20 22 14 8 8 4 5 8 13 22 19 16 17 19 18 20 23
13 12 13 13 14 16 18 18 17 17 19 17 17 17 18 18 16 15 9 13 17 16 10 12 14 16 16 16 16 16 24 23 15 11 5 4 11 18 14 24 26 19 20 23 24
14 14 14 14 15 17 19 19 17 18 17 18 20 20 19 19 21 18 18 15 15 19 21 18 15 21 25 25 25 24 24 22 17 9 12 10 31 37 35 24 20 20 28 29 31
16 16 15 16 17 17 17 18 18 19 18 17 14 16 19 18 15 12 13 21 19 18 12 12 10 9 8 12 16 22 24 26 26 30 34 12 29 24 31 39 38 39 37 39 39
18 16 16 18 19 20 19 20 19 19 18 18 19 18 16 17 19 17 21 19 19 18 20 25 26 29 25 26 27 24 27 23 23 30 37 40 57 49 45 47 46 48 43 42 40
21 20 21 15 12 14 15 16 14 17 19 20 23 21 16 22 22 22 19 18 19 20 21 22 29 29 32 31 34 37 37 37 42 45 44 57 56 54 47 49 44 37 28 23 23
24 23 25 24 22 22 22 23 22 19 20 23 23 21 25 26 21 24 26 28 29 28 29 29 30 30 38 34 35 40 36 39 44 48 53 56 62 46 41 31 30 25 28 23 24
26 27 26 27 26 26 26 25 23 22 20 17 18 19 19 21 22 24 26 26 27 30 32 33 32 31 42 35 31 32 37 35 37 39 38 44 42 38 32 29 23 21 18 22 23
Wind_Direction
136 132 134 139 142 143 145 147 145 145 144 142 143 143 145 145 150 162 174 173 149 125 47 155 215 178 183 169 182 193 217 243 251 250 247 233 243 245 252 260 271 282 288 289 290
136 129 133 138 140 143 148 151 151 152 150 150 152 157 162 162 171 189 197 201 211 224 238 274 263 186 203 178 196 203 228 253 259 267 261 254 264 258 262 272 280 291 297 291 292
135 132 133 137 137 141 153 156 159 159 157 161 164 169 176 180 193 216 232 242 235 241 248 259 278 291 263 235 218 227 240 251 261 269 264 265 268 262 267 278 284 288 292 288 293
140 134 135 135 136 141 151 163 165 167 169 176 180 189 188 196 209 231 248 244 246 258 269 277 281 283 255 245 243 243 248 254 261 260 261 266 261 267 270 277 276 280 284 288 296
144 138 136 138 143 148 149 156 171 176 182 189 194 206 214 225 233 274 260 256 274 278 284 280 277 267 268 272 265 263 259 255 257 260 262 267 267 266 280 280 274 275 285 287 296
143 140 141 146 151 154 158 162 166 176 189 199 207 218 222 222 247 278 249 264 286 285 281 271 254 261 274 271 270 272 263 259 257 262 275 279 276 277 284 278 276 282 285 288 295
146 146 147 150 152 160 168 173 180 188 197 201 214 222 234 245 261 265 254 269 288 277 248 239 251 269 276 275 259 261 248 261 235 293 289 291 283 285 283 282 284 284 286 293 298
157 154 158 160 169 173 171 178 187 196 207 214 228 234 247 250 271 265 249 259 250 242 256 255 261 269 270 249 228 265 235 270 248 292 288 290 298 300 292 285 273 269 279 286 287
174 170 174 181 184 184 188 195 202 207 214 220 235 244 254 260 264 248 241 222 225 250 271 265 260 255 247 224 253 261 261 286 271 287 287 283 294 294 288 275 259 254 251 259 277
172 176 187 194 198 202 208 216 224 228 226 233 251 259 254 261 258 241 221 218 239 258 253 269 241 237 241 278 287 284 270 279 277 291 287 291 294 282 278 260 240 231 234 238 248
165 183 194 196 202 213 222 230 232 235 238 232 239 250 255 274 248 230 228 240 260 258 250 244 243 249 269 278 292 277 275 279 283 284 289 295 288 238 229 217 225 237 243 243 249
177 192 195 202 206 215 216 222 248 239 235 236 245 261 255 252 233 246 249 261 264 263 255 263 267 265 262 280 279 272 274 276 283 289 293 290 262 221 221 232 240 244 255 266 269
172 180 186 200 206 215 202 208 241 234 262 249 244 241 241 238 244 249 260 268 272 267 265 266 271 277 264 274 276 269 276 285 282 293 294 286 270 227 221 228 242 255 264 282 302
175 190 207 210 217 208 209 233 251 272 289 236 230 246 251 259 268 263 264 266 270 269 269 275 274 271 265 274 273 273 280 282 286 296 283 270 289 241 233 239 243 253 276 307 319
215 229 225 217 209 206 222 246 236 293 314 209 211 268 273 266 267 274 265 260 269 268 266 269 278 274 271 279 274 270 274 285 292 288 285 261 250 272 238 241 235 249 296 322 324
233 244 246 230 223 217 228 222 240 270 260 221 252 303 319 292 272 269 271 271 276 273 272 275 272 270 270 273 266 264 276 288 281 275 264 255 222 270 247 250 243 260 295 308 317
241 247 248 245 237 229 226 220 252 235 236 238 245 317 315 306 287 271 276 273 265 278 276 283 272 268 267 267 263 258 264 289 294 226 227 245 219 253 268 257 267 270 287 298 311
241 244 248 247 239 236 230 225 232 244 243 272 293 308 311 319 317 315 296 289 271 260 269 282 288 268 269 265 256 259 241 224 248 234 282 231 239 261 257 245 268 261 270 293 307
249 246 249 251 244 239 234 227 239 239 250 267 287 306 276 299 308 308 303 290 282 259 243 276 264 276 272 272 265 255 246 252 259 279 278 247 259 269 261 277 276 274 281 288 300
260 257 252 246 244 241 240 241 233 242 254 271 287 274 279 294 306 303 307 292 288 288 270 269 280 279 270 267 261 248 252 243 229 263 262 269 268 265 293 293 297 281 291 286 300
254 252 250 250 250 247 244 251 255 254 261 272 274 275 279 286 291 290 270 288 284 286 280 289 268 275 272 272 277 258 247 241 247 246 220 272 259 275 288 301 295 275 280 281 302
260 261 257 252 247 249 256 264 261 261 260 265 270 273 275 279 282 280 281 285 280 285 290 284 269 267 278 277 274 265 259 252 235 238 237 261 267 274 290 289 291 281 299 291 291
259 258 257 258 255 259 262 264 263 262 262 270 272 274 278 279 277 273 277 296 291 281 274 283 259 286 289 274 265 262 265 258 254 258 259 256 269 274 287 289 289 289 290 295 290
259 262 259 256 260 262 263 264 259 264 267 266 273 279 287 284 272 268 276 283 284 276 275 284 269 263 258 275 284 277 278 274 265 256 265 253 280 286 290 293 296 295 292 291 286
255 258 259 257 258 258 256 257 265 265 266 273 276 278 282 288 284 283 280 276 279 284 283 275 271 276 280 281 278 277 277 276 273 273 261 280 277 289 294 298 304 298 288 283 290
254 251 254 257 256 258 260 267 269 268 267 273 279 286 278 274 277 277 279 279 281 279 279 280 274 284 286 286 286 284 280 277 275 275 273 278 281 297 304 303 306 289 287 290 294
255 256 255 257 260 260 262 266 272 276 279 274 276 277 274 280 278 277 276 280 277 275 276 275 272 277 279 289 291 281 282 289 288 284 283 283 302 310 306 306 301 281 293 300 307
Height
3183 3184 3185 3185 3186 3188 3190 3192 3195 3197 3199 3199 3200 3203 3205 3205 3205 3207 3207 3207 3206 3204 3204 3203 3202 3202 3201 3199 3199 3198 3198 3197 3196 3194 3194 3194 3194 3194 3194 3193 3193 3192 3192 3192 3190
3185 3185 3186 3187 3188 3190 3192 3194 3196 3199 3200 3201 3201 3204 3205 3206 3206 3206 3206 3205 3205 3204 3203 3202 3201 3201 3200 3198 3198 3197 3196 3196 3195 3194 3193 3192 3192 3191 3191 3190 3190 3189 3189 3188 3187
3187 3187 3187 3189 3190 3192 3194 3195 3198 3200 3201 3202 3202 3204 3205 3206 3206 3205 3206 3204 3204 3203 3203 3201 3200 3199 3198 3196 3196 3195 3194 3194 3193 3193 3191 3190 3190 3189 3188 3187 3187 3187 3186 3184 3184
3188 3189 3190 3191 3192 3194 3196 3197 3199 3200 3202 3203 3203 3204 3204 3205 3207 3204 3204 3204 3203 3202 3201 3200 3199 3198 3196 3195 3194 3193 3192 3191 3191 3191 3190 3189 3188 3187 3186 3186 3185 3184 3183 3181 3180
3190 3191 3191 3192 3194 3196 3196 3198 3200 3201 3202 3203 3203 3204 3204 3205 3204 3203 3202 3202 3202 3201 3199 3199 3198 3197 3195 3193 3193 3192 3191 3190 3189 3188 3188 3186 3185 3184 3183 3182 3181 3181 3179 3178 3177
3191 3192 3192 3194 3196 3197 3198 3199 3200 3201 3202 3202 3203 3203 3203 3205 3203 3201 3200 3200 3200 3200 3198 3197 3197 3196 3194 3192 3191 3190 3189 3188 3187 3187 3185 3183 3182 3180 3180 3179 3178 3177 3176 3174 3173
3192 3192 3193 3195 3196 3197 3198 3199 3199 3200 3201 3201 3202 3201 3202 3204 3201 3199 3199 3198 3198 3198 3197 3196 3195 3195 3193 3191 3190 3188 3188 3187 3186 3185 3183 3181 3179 3177 3177 3175 3173 3172 3171 3169 3169
3191 3192 3194 3195 3196 3197 3197 3198 3199 3200 3200 3200 3200 3200 3200 3200 3199 3198 3197 3196 3196 3197 3196 3195 3194 3193 3191 3190 3189 3188 3187 3186 3185 3183 3181 3181 3176 3175 3172 3171 3169 3168 3167 3165 3165
3191 3191 3193 3194 3195 3196 3197 3198 3199 3199 3199 3199 3200 3199 3199 3199 3198 3196 3195 3195 3195 3195 3195 3193 3192 3191 3191 3189 3189 3187 3185 3184 3183 3181 3178 3177 3173 3171 3169 3167 3166 3165 3164 3163 3162
3190 3191 3192 3194 3195 3196 3197 3197 3197 3198 3198 3198 3198 3200 3199 3197 3196 3195 3194 3194 3194 3194 3194 3192 3191 3190 3189 3188 3187 3185 3183 3182 3181 3180 3176 3172 3168 3167 3165 3163 3163 3162 3162 3160 3159
3189 3191 3192 3192 3194 3194 3196 3196 3199 3198 3197 3197 3195 3196 3196 3195 3194 3194 3193 3192 3192 3193 3192 3190 3190 3188 3188 3186 3185 3183 3181 3179 3178 3176 3172 3169 3163 3163 3162 3161 3160 3160 3158 3157 3156
3188 3190 3190 3192 3193 3194 3194 3194 3196 3196 3195 3194 3193 3194 3194 3192 3192 3193 3192 3192 3191 3191 3190 3190 3187 3186 3185 3184 3183 3181 3178 3176 3175 3172 3170 3165 3160 3159 3157 3157 3157 3156 3155 3154 3152
3189 3189 3190 3192 3193 3193 3193 3194 3194 3194 3193 3192 3192 3191 3192 3192 3191 3191 3190 3188 3189 3189 3188 3186 3185 3184 3183 3181 3180 3179 3177 3174 3173 3170 3166 3162 3156 3154 3154 3153 3152 3151 3150 3149 3147
3189 3190 3192 3191 3194 3192 3193 3193 3193 3193 3191 3192 3191 3190 3190 3189 3189 3188 3187 3188 3186 3187 3186 3184 3182 3181 3179 3179 3178 3176 3175 3172 3171 3169 3165 3163 3155 3149 3150 3149 3148 3147 3146 3145 3143
3189 3190 3190 3190 3191 3192 3193 3192 3192 3194 3192 3191 3189 3189 3187 3188 3188 3186 3185 3184 3184 3183 3184 3182 3179 3178 3177 3176 3175 3174 3172 3170 3167 3165 3163 3159 3160 3143 3144 3143 3143 3143 3142 3140 3138
3188 3189 3189 3190 3191 3191 3191 3191 3193 3195 3189 3188 3187 3187 3185 3184 3184 3183 3182 3183 3181 3180 3178 3177 3176 3175 3173 3172 3171 3171 3170 3167 3164 3163 3160 3152 3153 3139 3138 3139 3139 3138 3137 3136 3134
3187 3187 3188 3188 3189 3189 3189 3191 3194 3189 3189 3188 3187 3185 3184 3183 3181 3180 3180 3179 3179 3178 3175 3174 3172 3171 3170 3169 3168 3168 3167 3165 3163 3161 3153 3148 3148 3133 3135 3134 3135 3134 3132 3131 3129
3185 3185 3186 3186 3187 3188 3189 3191 3189 3186 3186 3185 3185 3183 3182 3181 3180 3179 3177 3176 3175 3174 3173 3171 3169 3167 3166 3166 3166 3165 3165 3163 3162 3158 3150 3147 3137 3128 3129 3129 3129 3128 3128 3126 3124
3183 3183 3183 3184 3185 3186 3188 3187 3185 3184 3184 3184 3184 3182 3181 3180 3180 3178 3175 3173 3172 3172 3173 3170 3166 3164 3164 3163 3165 3162 3161 3161 3158 3153 3150 3138 3129 3125 3125 3125 3125 3123 3122 3121 3119
3180 3180 3181 3181 3182 3183 3183 3182 3182 3182 3182 3181 3181 3181 3179 3178 3178 3176 3175 3172 3171 3170 3169 3167 3164 3161 3160 3159 3159 3158 3158 3157 3156 3154 3148 3131 3127 3119 3121 3121 3120 3118 3117 3115 3112
3176 3177 3177 3177 3178 3179 3177 3178 3178 3178 3179 3179 3178 3178 3177 3176 3174 3174 3172 3170 3168 3167 3166 3165 3163 3158 3156 3154 3153 3153 3150 3151 3152 3148 3141 3136 3119 3118 3117 3117 3115 3113 3112 3110 3106
3172 3173 3173 3173 3175 3173 3173 3174 3175 3174 3174 3174 3173 3173 3173 3172 3171 3170 3168 3167 3165 3164 3162 3161 3157 3152 3151 3150 3148 3146 3145 3146 3145 3139 3134 3126 3105 3113 3113 3111 3110 3108 3106 3104 3100
3168 3169 3169 3170 3169 3169 3170 3170 3170 3170 3170 3169 3168 3169 3168 3168 3169 3164 3162 3162 3161 3160 3157 3156 3152 3149 3145 3144 3141 3138 3138 3138 3137 3134 3123 3124 3098 3106 3107 3104 3104 3101 3099 3096 3092
3164 3164 3165 3164 3165 3165 3166 3166 3166 3165 3164 3165 3165 3164 3163 3163 3163 3159 3158 3157 3156 3155 3154 3152 3147 3146 3143 3141 3139 3135 3134 3133 3131 3125 3114 3107 3090 3098 3097 3095 3095 3092 3089 3085 3082
3158 3158 3159 3159 3160 3160 3161 3161 3161 3161 3160 3160 3158 3160 3160 3158 3156 3153 3153 3152 3151 3149 3148 3145 3139 3139 3136 3135 3132 3129 3128 3125 3120 3114 3110 3093 3091 3090 3087 3086 3083 3079 3076 3074 3074
3152 3153 3153 3154 3155 3156 3155 3156 3156 3157 3156 3155 3154 3155 3154 3151 3151 3149 3147 3146 3145 3143 3141 3139 3134 3132 3125 3128 3125 3116 3117 3115 3110 3103 3097 3090 3078 3088 3081 3079 3076 3074 3070 3068 3068
3144 3145 3146 3147 3148 3149 3150 3150 3150 3150 3150 3149 3149 3148 3147 3147 3144 3142 3140 3139 3137 3136 3135 3133 3129 3126 3113 3119 3115 3103 3104 3103 3097 3093 3091 3084 3076 3076 3073 3071 3068 3066 3065 3063 3061